DW5450 Weather Reports


Display with metric or nautical units.
time (UTC)temp
F
wind
direction
speed
MPH
gust
MPH
rain 1hr
in
rain 24hr
in
rain mn
in
humidity
%
barometer
mb
20260510130022 67 317 2.0 6.0 0.00 0.00 0.00 37 1009.6
20260510124521 66 306 1.0 4.0 0.00 0.00 0.00 39 1009.4
20260510123021 66 311 1.0 5.0 0.00 0.00 0.00 39 1009.2
20260510121525 67 321 1.0 7.0 0.00 0.00 0.00 37 1009.1
20260510120033 67 306 2.0 5.0 0.00 0.00 0.00 36 1009.1
20260510114518 66 323 2.0 5.0 0.00 0.00 0.00 38 1009.0
20260510113017 66 355 0.0 3.0 0.00 0.00 0.00 41 1009.1
20260510111517 66 355 1.0 3.0 0.00 0.00 0.00 41 1009.1
20260510110023 65 355 1.0 4.0 0.00 0.00 0.00 43 1009.1
20260510104515 65 16 0.0 1.0 0.00 0.00 0.00 45 1009.0
20260510103013 65 16 0.0 1.0 0.00 0.00 0.00 45 1009.0
20260510101513 66 16 1.0 3.0 0.00 0.00 0.00 40 1009.0
20260510100012 65 25 1.0 3.0 0.00 0.00 0.00 41 1009.0
20260510094522 66 26 0.0 2.0 0.00 0.00 0.00 44 1009.0
20260510093006 67 26 0.0 1.0 0.00 0.00 0.00 45 1008.9
20260510091506 68 26 0.0 1.0 0.00 0.00 0.00 42 1009.0
20260510090005 68 26 0.0 4.0 0.00 0.00 0.00 37 1009.0
20260510084503 67 28 0.0 3.0 0.00 0.00 0.00 40 1009.0
20260510083002 67 28 0.0 1.0 0.00 0.00 0.00 43 1009.1
20260510081628 67 28 0.0 2.0 0.00 0.00 0.00 46 1009.3
20260510080057 68 28 0.0 2.0 0.00 0.00 0.00 40 1009.4
20260510074557 69 28 0.0 1.0 0.00 0.00 0.00 44 1009.5
20260510073051 69 28 0.0 0.0 0.00 0.00 0.00 50 1009.6
20260510071548 70 28 0.0 1.0 0.00 0.00 0.00 43 1009.6
20260510070047 70 28 0.0 1.0 0.00 0.00 0.00 41 1009.6
20260510064544 69 28 0.0 2.0 0.00 0.00 0.00 41 1009.7
20260510063044 69 28 0.0 1.0 0.00 0.00 0.00 42 1009.7
20260510061544 70 28 0.0 1.0 0.00 0.00 0.00 43 1009.7
20260510060051 71 28 0.0 1.0 0.00 0.00 0.00 42 1009.7
20260510054543 72 28 0.0 1.0 0.00 0.00 0.00 40 1009.8
20260510053042 72 28 0.0 3.0 0.00 0.00 0.00 38 1009.7
20260510051603 72 42 0.0 1.0 0.00 0.00 0.00 43 1009.6
20260510050047 72 42 0.0 1.0 0.00 0.00 0.00 43 1009.4
20260510044543 73 42 0.0 0.0 0.00 0.00 0.00 44 1009.3
20260510043059 73 42 0.0 0.0 0.00 0.00 0.00 45 1009.1
20260510041546 75 42 0.0 0.0 0.00 0.00 0.00 45 1008.9
20260510040040 77 42 0.0 0.0 0.00 0.00 0.00 42 1008.8
20260510034544 79 42 0.0 1.0 0.00 0.00 0.00 35 1008.7
20260510033041 80 42 0.0 2.0 0.00 0.00 0.00 35 1008.6
20260510031607 81 42 0.0 0.0 0.00 0.00 0.00 35 1008.5
20260510030039 82 42 0.0 1.0 0.00 0.00 0.00 32 1008.3
20260510024539 82 42 0.0 2.0 0.00 0.00 0.00 31 1008.1
20260510023046 83 42 0.0 1.0 0.00 0.00 0.00 30 1008.0
20260510021542 83 42 0.0 2.0 0.00 0.00 0.00 32 1007.7
20260510020036 85 42 0.0 0.0 0.00 0.00 0.00 32 1007.5
20260510014535 86 42 0.0 0.0 0.00 0.00 0.00 28 1007.2
20260510013038 87 42 0.0 2.0 0.00 0.00 0.00 30 1007.1
20260510011543 89 32 0.0 2.0 0.00 0.00 0.00 30 1007.1
20260510010039 90 111 0.0 1.0 0.00 0.00 0.00 31 1007.1
20260510004534 90 108 0.0 2.0 0.00 0.00 0.00 29 1007.0
20260510003034 91 106 0.0 3.0 0.00 0.00 0.00 28 1006.9
20260510001532 91 98 0.0 4.0 0.00 0.00 0.00 30 1006.9
20260510000032 91 113 1.0 4.0 0.00 0.00 0.00 30 1006.9
20260509234534 91 127 1.0 4.0 0.00 0.00 0.00 31 1007.0
20260509233031 90 96 2.0 7.0 0.00 0.00 0.00 34 1006.9
20260509231530 90 131 2.0 8.0 0.00 0.00 0.00 38 1007.0
20260509230029 90 94 3.0 11.0 0.00 0.00 0.00 35 1007.0
20260509224528 90 126 2.0 9.0 0.00 0.00 0.00 32 1007.1
20260509223029 90 188 2.0 8.0 0.00 0.00 0.00 37 1007.2
20260509221529 90 124 2.0 11.0 0.00 0.00 0.00 41 1007.4
20260509220023 91 122 4.0 11.0 0.00 0.00 0.00 39 1007.5
20260509214521 92 106 5.0 13.0 0.00 0.00 0.00 29 1007.7
20260509213019 93 131 2.0 12.0 0.00 0.00 0.00 25 1007.8
20260509211539 93 172 5.0 13.0 0.00 0.00 0.00 21 1007.9
20260509210016 93 151 3.0 14.0 0.00 0.00 0.00 23 1008.2
20260509204513 93 169 5.0 12.0 0.00 0.00 0.00 21 1008.4
20260509203024 93 169 3.0 12.0 0.00 0.00 0.00 21 1008.5
20260509201508 92 148 5.0 13.0 0.00 0.00 0.00 22 1008.8
20260509200008 92 202 8.0 17.0 0.00 0.00 0.00 20 1009.1
20260509194507 92 180 4.0 15.0 0.00 0.00 0.00 23 1009.3
20260509193006 92 156 4.0 13.0 0.00 0.00 0.00 23 1009.4
20260509191505 92 113 2.0 12.0 0.00 0.00 0.00 25 1009.3
20260509190006 91 184 5.0 14.0 0.00 0.00 0.00 22 1009.4
20260509184503 92 113 6.0 16.0 0.00 0.00 0.00 23 1009.4
20260509183003 91 154 3.0 13.0 0.00 0.00 0.00 25 1009.6
20260509181610 91 173 6.0 12.0 0.00 0.00 0.00 27 1009.7
20260509180059 91 146 5.0 8.0 0.00 0.00 0.00 26 1009.6
20260509174555 90 138 4.0 11.0 0.00 0.00 0.00 29 1009.8
20260509173057 88 129 3.0 12.0 0.00 0.00 0.00 37 1009.8
20260509171554 88 113 3.0 9.0 0.00 0.00 0.00 43 1010.0
20260509170049 88 155 3.0 9.0 0.00 0.00 0.00 43 1010.1
20260509164546 88 135 3.0 8.0 0.00 0.00 0.00 44 1010.2
20260509163056 87 151 3.0 9.0 0.00 0.00 0.00 41 1010.2
20260509161544 87 177 2.0 8.0 0.00 0.00 0.00 37 1010.2
20260509160041 86 136 0.0 3.0 0.00 0.00 0.00 43 1010.1
20260509154537 82 330 0.0 2.0 0.00 0.00 0.00 44 1010.2
20260509153032 78 329 0.0 2.0 0.00 0.00 0.00 49 1010.3
20260509151528 76 329 0.0 1.0 0.00 0.00 0.00 50 1010.4
20260509150023 73 328 0.0 2.0 0.00 0.00 0.00 56 1010.5
20260509144519 70 328 0.0 1.0 0.00 0.00 0.00 57 1010.6
20260509143014 68 328 0.0 2.0 0.00 0.00 0.00 56 1010.6
20260509141517 67 330 0.0 3.0 0.00 0.00 0.00 59 1010.6
20260509140013 65 336 0.0 5.0 0.00 0.00 0.00 62 1010.5
20260509134511 63 311 0.0 2.0 0.00 0.00 0.00 66 1010.4
20260509133009 63 308 0.0 1.0 0.00 0.00 0.00 67 1010.2
20260509131512 63 308 0.0 4.0 0.00 0.00 0.00 61 1010.0